"Pseudo-MPEC" for C8GKV42

Created 2022 Nov 25 13:22:13 UT using Find_Orb

Click here for an explanation of pseudo-MPECs

 
 Astrometry: 
     C8GKV42*1C2022 11 23.51458107 39 33.973+49 27 45.43   ~BNDM 20.74GVNEOCPG96
     C8GKV42 1C2022 11 23.52035707 39 39.319+49 27 58.43   ~BNDM 20.64GVNEOCPG96
     C8GKV42 1C2022 11 23.53044807 39 48.744+49 28 21.54   ~BNDM 20.79GVNEOCPG96
     C8GKV42 1C2022 11 23.54336907 40 00.797+49 28 50.20   ~BNDM 20.56GVNEOCPG96
     C8GKV42  C2022 11 24QVv/'6kAstrometry/BYI^`b4xU0/,l0RW8#os'PEv_f*5GLnpe/511
     C8GKV42  C2022 11 24Yyredacted;ahdpuV['gs*\G1\w1Y67yA'FGO=28PfPJm,+tsY%0511
     C8GKV42  C2022 11 24jlW!%m9%ht%6IBbrBkrf^Xr3,+l1\bh8B5+!X%HNIJjuG,@?s%RE511
     C8GKV42  C2022 11 248^P^T;@)28r=9PB@xKC#oJ_COuN03Xngsh^V!vNjY;01@S4iK8kd511
     C8GKV42  C2022 11 24\t(18EZ,f-O$cPUlHEKc/\]bKMgcrRyGZ1IMV^3vkb!/8V!aU$dL511
     C8GKV42  C2022 11 24gi9+;k*bofS%JfoO#$A3%\h_aRWXCK(;qgXw\D*bHp=yuBu.!Wva511
     C8GKV42 mC2022 11 24.31580207 53 14.273+49 57 44.93   ~BO7q 20.80GVNEOCPI52
     C8GKV42 mC2022 11 24.31633007 53 14.672+49 57 45.61   ~BO7q 20.54GVNEOCPI52
     C8GKV42 mC2022 11 24.31685907 53 15.263+49 57 47.27   ~BO7q 22.08GVNEOCPI52
     C8GKV42 mC2022 11 24.31738907 53 15.940+49 57 48.38   ~BO7q 21.68GVNEOCPI52
     C8GKV42 KC2022 11 24r(=O``O1Ck(0#YFGcbI4fg!.b/d@_KlAhB'(qm%O5?c6@Lxi:%0(L01
     C8GKV42 KC2022 11 24rjj\dO-WqOSR2Jy7A)M:l=[;$Y@4;!-_kiJtQ[E4R88QPYZWtLt/L01
     C8GKV42 KC2022 11 24EigX0Vs1=XV`\Pclick7=Pr+(dhereD3nWnKQty:sforC(QS^$!7L01
     C8GKV42 KC2022 11 24Nas$Sk.Kv65tJ*explanationRr/]lcxf,q9v1?3_Z`=3+L8\bNVL01
     C8GKV42 KC2022 11 25f2b^uF+^DKD$v]BLn;9-OK=+wUg9]xo`k,#)*N(.%?*QhykuOkFlL01
     C8GKV42 mC2022 11 25.45455808 15 43.520+50 33 56.10   ~BPBM 20.78GVNEOCPI52
     C8GKV42 mC2022 11 25.45718508 15 46.700+50 34 00.90   ~BPBM 22.66GVNEOCPI52

Station data:
(511) Haute Provence  (N43.931873 E5.715700)  France.  Observers W.
   Polycarpe, M. Dennefield, W. Thuillot, B. Carry, P. David, S. Bouquillon,
   F. Taris, P. Tanga, M. Delbó, E. Saquet, V. Robert. Measurers W. Thuillot,
   S. Bouquillon, F. Taris, T. Carlucci, C. Barache. 1.20-m f/6 reflector +
   CCD.
(G96) Mt. Lemmon Survey  (N32.442751 W110.788720)  US/Arizona.  Observers T.
   A. Pruyne, B. M. Africano, E. J. Christensen, G. A. Farneth, D. C. Fuls,
   A. R. Gibbs, A. D. Grauer, H. Gröller, J. A. Johnson, R. A. Kowalski, S.
   M. Larson, G. J. Leonard, D. Rankin, R. L. Seaman, F. C. Shelly, K. W.
   Wierzchoś. 1.5-m reflector + 10K CCD.
(I52) Steward Observatory, Mt. Lemmon Station  (N32.442544 W110.788920)
   US/Arizona.  Observers T. A. Pruyne, B. M. Africano, E. J. Christensen, G.
   A. Farneth, D. C. Fuls, A. R. Gibbs, A. D. Grauer, H. Gröller, J. A.
   Johnson, R. A. Kowalski, S. M. Larson, G. J. Leonard, D. Rankin, R. L.
   Seaman, F. C. Shelly, K. W. Wierzchoś. 1.0-m reflector + CCD.
(L01) Višnjan Observatory, Tičan  (N45.290897 E13.749300)  Croatia.
   Observers K. Korlević, D. Pujagic, V. Dobos. Measurers D. Pujagic, K.
   Korlević. 1.0-m f/2.9 reflector + CCD.

Orbital elements:  C8GKV42
   Perihelion 2023 Jan 17.78183 +/- 0.257 TT = 18:45:50 (JD 2459962.28183)
Epoch 2022 Nov 25.0 TT = JDT 2459908.5   Earth MOID: 0.0265   Ve: 0.0195
M 339.57012174 +/- 0.7              Ma: 0.0704                AutoNEOCP
n   0.37986580 +/- 0.0124           Peri.  249.87286 +/- 0.26
a   1.88820545 +/- 0.0412           Node   280.75075 +/- 0.18
e   0.7202721 +/- 0.007             Incl.    7.47829 +/- 0.041
P   2.59/947.69d           H 23.3   G  0.15   U  9.8
q 0.52818374 +/- 0.00171    Q 3.24822715 +/- 0.084        (J2000 ecliptic)
From 21 observations 2022 Nov. 23-25 (46.6 hr); mean residual 0".41
Residuals in arcseconds: 
221123 G96  .13+  .09-    221124 511  .21+  .02+    221124 L01  .19+  .13+    
221123 G96  .09-  .22-    221124 511  .06-  .29+    221124 L01  .12-  .28+    
221123 G96  .19+  .06+    221124 511  .11+  .02+    221124 L01  .13+  .16-    
221123 G96  .07+  .31-    221124 I52  .79+  .05+    221124 L01  .18+  .11-    
221124 511  .16-  .30-    221124 I52  .79-  .49-    221125 L01  .06+  .15-    
221124 511  1.1-  .32+    221124 I52  .53-  .06-    221125 I52  .63+  .36-    
221124 511  .36+  1.3+    221124 I52  .56+  .17-    221125 I52  .79-  .22+    

Ephemerides (geocentric):
Date (UTC) HH   RA             Dec           delta  r     elong  mag " sig PA
---- --------  ------------   ------------  ------ ------ -----  --- --------
2022 11 25 13  08 17 36.729   +50 35 53.47  .15074 1.0758 122.6 21.2 .054 119
2022 11 25 14  08 18 31.774   +50 36 56.08  .15027 1.0753 122.4 21.2 .038 149
2022 11 25 15  08 19 27.183   +50 37 57.42  .14981 1.0748 122.3 21.2 .040  14
2022 11 25 16  08 20 22.958   +50 38 57.46  .14935 1.0742 122.2 21.2 .061  42
2022 11 25 17  08 21 19.102   +50 39 56.17  .14890 1.0737 122.1 21.2 .090  55
2022 11 25 18  08 22 15.616   +50 40 53.53  .14844 1.0732 122.0 21.2 .123  62
2022 11 25 19  08 23 12.503   +50 41 49.50  .14798 1.0727 121.9 21.2 .160  67
2022 11 25 20  08 24 09.763   +50 42 44.06  .14753 1.0721 121.8 21.2 .198  69
2022 11 25 21  08 25 07.400   +50 43 37.17  .14707 1.0716 121.6 21.2 .239  72
2022 11 25 22  08 26 05.414   +50 44 28.80  .14662 1.0711 121.5 21.2 .282  73
2022 11 25 23  08 27 03.808   +50 45 18.92  .14617 1.0705 121.4 21.2 .327  75
2022 11 26 00  08 28 02.584   +50 46 07.50  .14572 1.0700 121.3 21.2 .375  76
2022 11 26 01  08 29 01.743   +50 46 54.50  .14527 1.0695 121.2 21.2 .425  77
2022 11 26 02  08 30 01.287   +50 47 39.89  .14482 1.0690 121.0 21.2 .477  77
2022 11 26 03  08 31 01.218   +50 48 23.65  .14437 1.0684 120.9 21.2 .531  78
2022 11 26 04  08 32 01.537   +50 49 05.72  .14393 1.0679 120.8 21.2 .587  79
2022 11 26 05  08 33 02.246   +50 49 46.08  .14348 1.0674 120.7 21.1 .646  79
2022 11 26 06  08 34 03.347   +50 50 24.69  .14304 1.0668 120.5 21.1 .707  80
2022 11 26 07  08 35 04.842   +50 51 01.52  .14259 1.0663 120.4 21.1 .771  80
2022 11 26 08  08 36 06.731   +50 51 36.53  .14215 1.0658 120.3 21.1 .837  81
2022 11 26 09  08 37 09.016   +50 52 09.69  .14171 1.0652 120.1 21.1 .906  81
2022 11 26 10  08 38 11.699   +50 52 40.94  .14127 1.0647 120.0 21.1 .977  82
2022 11 26 11  08 39 14.781   +50 53 10.27  .14083 1.0642 119.9 21.1 1.05  82
2022 11 26 12  08 40 18.264   +50 53 37.63  .14039 1.0637 119.7 21.1 1.13  83
2022 11 26 13  08 41 22.148   +50 54 02.97  .13996 1.0631 119.6 21.1 1.21  83
2022 11 26 14  08 42 26.435   +50 54 26.27  .13952 1.0626 119.5 21.1 1.29  83
2022 11 26 15  08 43 31.127   +50 54 47.48  .13909 1.0621 119.3 21.1 1.37  84
2022 11 26 16  08 44 36.224   +50 55 06.56  .13866 1.0615 119.2 21.1 1.46  84
2022 11 26 17  08 45 41.727   +50 55 23.47  .13823 1.0610 119.1 21.1 1.55  84
2022 11 26 18  08 46 47.637   +50 55 38.16  .13780 1.0605 118.9 21.1 1.64  85
2022 11 26 19  08 47 53.956   +50 55 50.61  .13737 1.0599 118.8 21.1 1.74  85
2022 11 26 20  08 49 00.684   +50 56 00.75  .13694 1.0594 118.6 21.1 1.84  86
2022 11 26 21  08 50 07.822   +50 56 08.55  .13651 1.0589 118.5 21.1 1.94  86
2022 11 26 22  08 51 15.371   +50 56 13.98  .13609 1.0583 118.3 21.1 2.05  86
2022 11 26 23  08 52 23.332   +50 56 16.97  .13566 1.0578 118.2 21.1 2.16  86
2022 11 27 00  08 53 31.705   +50 56 17.49  .13524 1.0573 118.1 21.1 2.27  87
2022 11 27 01  08 54 40.490   +50 56 15.49  .13482 1.0567 117.9 21.1 2.38  87
2022 11 27 02  08 55 49.689   +50 56 10.93  .13440 1.0562 117.8 21.1 2.50  87
2022 11 27 03  08 56 59.301   +50 56 03.76  .13398 1.0557 117.6 21.1 2.62  88
2022 11 27 04  08 58 09.328   +50 55 53.93  .13357 1.0552 117.5 21.1 2.75  88
2022 11 27 05  08 59 19.769   +50 55 41.40  .13315 1.0546 117.3 21.1 2.87  88
2022 11 27 06  09 00 30.624   +50 55 26.11  .13274 1.0541 117.2 21.1 3.01  89
2022 11 27 07  09 01 41.893   +50 55 08.03  .13232 1.0536 117.0 21.1 3.14  89
2022 11 27 08  09 02 53.578   +50 54 47.10  .13191 1.0530 116.9 21.1 3.28  89
2022 11 27 09  09 04 05.676   +50 54 23.27  .13150 1.0525 116.7 21.0 3.42  90
2022 11 27 10  09 05 18.189   +50 53 56.49  .13109 1.0520 116.5 21.0 3.57  90
2022 11 27 11  09 06 31.116   +50 53 26.71  .13069 1.0514 116.4 21.0 3.72  90
2022 11 27 12  09 07 44.456   +50 52 53.89  .13028 1.0509 116.2 21.0 3.88  90